TimeCST,TemperatureF,Dew PointF,Humidity,Sea Level PressureIn,VisibilityMPH,Wind Direction,Wind SpeedMPH,Gust SpeedMPH,PrecipitationIn,Events,Conditions,WindDirDegrees,DateUTC
12:15 AM,28.4,24.8,86,29.75,10.0,NW,32.2,39.1,N/A,,Overcast,320,2014-01-14 06:15:00
12:35 AM,28.4,23.0,80,29.77,10.0,NW,41.4,50.6,N/A,,Overcast,320,2014-01-14 06:35:00
12:55 AM,26.6,23.0,86,29.79,10.0,NNW,23.0,42.6,N/A,,Mostly Cloudy,330,2014-01-14 06:55:00
1:15 AM,24.8,23.0,93,29.81,10.0,NW,18.4,23.0,N/A,,Mostly Cloudy,320,2014-01-14 07:15:00
1:35 AM,24.8,21.2,86,29.84,10.0,NNW,27.6,35.7,N/A,,Overcast,330,2014-01-14 07:35:00
1:55 AM,24.8,19.4,80,29.85,10.0,NW,34.5,46.0,N/A,,Overcast,320,2014-01-14 07:55:00
2:15 AM,23.0,17.6,80,29.85,10.0,NW,40.3,51.8,N/A,,Overcast,320,2014-01-14 08:15:00
2:35 AM,23.0,19.4,86,29.86,10.0,NW,32.2,42.6,N/A,,Overcast,320,2014-01-14 08:35:00
2:55 AM,23.0,17.6,80,29.87,10.0,NW,27.6,42.6,N/A,,Mostly Cloudy,320,2014-01-14 08:55:00
3:15 AM,23.0,15.8,74,29.88,10.0,NNW,33.4,43.7,N/A,,Mostly Cloudy,330,2014-01-14 09:15:00
3:35 AM,23.0,17.6,80,29.91,10.0,NNW,21.9,36.8,N/A,,Overcast,330,2014-01-14 09:35:00
3:55 AM,23.0,17.6,80,29.91,10.0,NW,19.6,24.2,N/A,Rain,Freezing Rain,320,2014-01-14 09:55:00
4:15 AM,23.0,17.6,80,29.92,10.0,NNW,27.6,38.0,N/A,Rain,Freezing Rain,330,2014-01-14 10:15:00
4:35 AM,23.0,15.8,74,29.94,10.0,NNW,23.0,36.8,N/A,,Overcast,330,2014-01-14 10:35:00
4:55 AM,21.2,15.8,80,29.96,10.0,NW,19.6,28.8,N/A,,Overcast,320,2014-01-14 10:55:00
5:15 AM,19.4,15.8,86,29.97,10.0,NW,20.7,25.3,N/A,,Overcast,320,2014-01-14 11:15:00
5:35 AM,19.4,14.0,80,29.97,10.0,NW,31.1,39.1,N/A,,Overcast,320,2014-01-14 11:35:00
5:55 AM,19.4,14.0,80,29.99,10.0,NW,24.2,34.5,N/A,Snow,Light Snow,320,2014-01-14 11:55:00
6:15 AM,19.4,14.0,80,30.00,10.0,NW,27.6,35.7,N/A,Snow,Light Snow,320,2014-01-14 12:15:00
6:35 AM,19.4,14.0,80,30.02,10.0,NNW,26.5,36.8,N/A,Snow,Light Snow,330,2014-01-14 12:35:00
6:55 AM,17.6,14.0,86,30.03,10.0,NW,23.0,31.1,N/A,,Mostly Cloudy,320,2014-01-14 12:55:00
7:15 AM,17.6,12.2,79,30.04,10.0,NW,20.7,24.2,N/A,,Mostly Cloudy,320,2014-01-14 13:15:00
7:35 AM,17.6,12.2,79,30.06,10.0,NW,16.1,26.5,N/A,,Overcast,320,2014-01-14 13:35:00
7:55 AM,17.6,10.4,73,30.06,10.0,NW,20.7,26.5,N/A,,Scattered Clouds,320,2014-01-14 13:55:00
8:15 AM,15.8,10.4,79,30.06,10.0,NW,20.7,25.3,N/A,,Clear,310,2014-01-14 14:15:00
8:35 AM,15.8,10.4,79,30.07,10.0,NW,19.6,25.3,N/A,,Clear,320,2014-01-14 14:35:00
8:55 AM,15.8,10.4,79,30.10,10.0,NNW,13.8,21.9,N/A,,Clear,330,2014-01-14 14:55:00
9:15 AM,15.8,10.4,79,30.11,10.0,NNW,16.1,-,N/A,,Clear,330,2014-01-14 15:15:00
9:35 AM,17.6,10.4,73,30.13,10.0,NNW,16.1,20.7,N/A,,Clear,330,2014-01-14 15:35:00
9:55 AM,15.8,10.4,79,30.13,10.0,NW,13.8,-,N/A,,Clear,320,2014-01-14 15:55:00
10:15 AM,15.8,10.4,79,30.14,10.0,NW,17.3,-,N/A,,Clear,310,2014-01-14 16:15:00
10:35 AM,17.6,10.4,73,30.14,10.0,NW,17.3,-,N/A,,Clear,320,2014-01-14 16:35:00
10:55 AM,17.6,10.4,73,30.15,10.0,NW,19.6,24.2,N/A,,Clear,320,2014-01-14 16:55:00
11:15 AM,17.6,10.4,73,30.17,10.0,NW,15.0,-,N/A,,Clear,320,2014-01-14 17:15:00
11:35 AM,19.4,10.4,68,30.17,10.0,NW,17.3,23.0,N/A,,Clear,320,2014-01-14 17:35:00
11:55 AM,19.4,10.4,68,30.17,10.0,NNW,16.1,28.8,N/A,,Clear,330,2014-01-14 17:55:00
12:15 PM,19.4,10.4,68,30.17,10.0,NNW,20.7,24.2,N/A,,Partly Cloudy,330,2014-01-14 18:15:00
12:35 PM,19.4,10.4,68,30.18,10.0,NW,21.9,27.6,N/A,,Clear,320,2014-01-14 18:35:00
12:55 PM,19.4,10.4,68,30.18,10.0,NNW,18.4,25.3,N/A,,Mostly Cloudy,330,2014-01-14 18:55:00
1:15 PM,19.4,10.4,68,30.17,10.0,NNW,16.1,-,N/A,,Mostly Cloudy,330,2014-01-14 19:15:00
1:35 PM,21.2,10.4,63,30.17,10.0,NNW,16.1,20.7,N/A,,Partly Cloudy,330,2014-01-14 19:35:00
1:55 PM,23.0,10.4,59,30.17,10.0,NNW,20.7,26.5,N/A,,Clear,330,2014-01-14 19:55:00
2:15 PM,23.0,8.6,54,30.17,10.0,NW,26.5,29.9,N/A,,Clear,320,2014-01-14 20:15:00
2:35 PM,23.0,8.6,54,30.18,10.0,NW,20.7,31.1,N/A,,Clear,320,2014-01-14 20:35:00
2:55 PM,21.2,8.6,58,30.19,10.0,NW,24.2,-,N/A,,Clear,320,2014-01-14 20:55:00
3:15 PM,21.2,8.6,58,30.20,10.0,NW,21.9,31.1,N/A,,Clear,310,2014-01-14 21:15:00
3:35 PM,19.4,8.6,63,30.22,10.0,NW,21.9,31.1,N/A,,Clear,320,2014-01-14 21:35:00
3:55 PM,19.4,8.6,63,30.22,10.0,NW,23.0,28.8,N/A,,Clear,320,2014-01-14 21:55:00
4:15 PM,19.4,6.8,58,30.23,10.0,NW,18.4,25.3,N/A,,Clear,320,2014-01-14 22:15:00
4:35 PM,17.6,8.6,68,30.23,10.0,NW,15.0,-,N/A,,Clear,310,2014-01-14 22:35:00
4:55 PM,17.6,8.6,68,30.23,10.0,NW,18.4,25.3,N/A,,Clear,320,2014-01-14 22:55:00
5:15 PM,17.6,6.8,63,30.23,10.0,NW,19.6,25.3,N/A,,Clear,320,2014-01-14 23:15:00
5:35 PM,15.8,6.8,68,30.23,10.0,NW,15.0,-,N/A,,Clear,320,2014-01-14 23:35:00
5:55 PM,15.8,6.8,68,30.24,10.0,NW,11.5,-,N/A,,Clear,320,2014-01-14 23:55:00
6:15 PM,12.2,6.8,79,30.24,10.0,WNW,4.6,-,N/A,,Clear,290,2014-01-15 00:15:00
6:35 PM,12.2,6.8,79,30.24,10.0,West,3.5,-,N/A,,Clear,270,2014-01-15 00:35:00
6:55 PM,10.4,6.8,85,30.24,10.0,Calm,Calm,-,N/A,,Clear,0,2014-01-15 00:55:00
7:15 PM,10.4,5.0,79,30.24,10.0,SW,3.5,-,N/A,,Clear,220,2014-01-15 01:15:00
7:35 PM,10.4,5.0,79,30.24,10.0,West,4.6,-,N/A,,Clear,260,2014-01-15 01:35:00
7:55 PM,10.4,5.0,79,30.24,10.0,NW,6.9,-,N/A,,Clear,310,2014-01-15 01:55:00
8:15 PM,8.6,5.0,85,30.24,10.0,NW,4.6,-,N/A,,Clear,310,2014-01-15 02:15:00
8:35 PM,10.4,6.8,85,30.22,10.0,NNW,3.5,-,N/A,,Clear,330,2014-01-15 02:35:00
8:55 PM,6.8,1.4,79,30.22,10.0,NNW,4.6,-,N/A,,Clear,330,2014-01-15 02:55:00
9:15 PM,5.0,1.4,85,30.23,10.0,West,3.5,-,N/A,,Clear,270,2014-01-15 03:15:00
9:35 PM,5.0,1.4,85,30.23,10.0,West,4.6,-,N/A,,Clear,270,2014-01-15 03:35:00
9:55 PM,3.2,1.4,92,30.23,10.0,WNW,4.6,-,N/A,,Clear,290,2014-01-15 03:55:00
10:15 PM,1.4,-0.4,92,30.22,10.0,Calm,Calm,-,N/A,,Clear,0,2014-01-15 04:15:00
10:35 PM,5.0,1.4,85,30.21,10.0,Calm,Calm,-,N/A,,Clear,0,2014-01-15 04:35:00
10:55 PM,5.0,1.4,85,30.21,10.0,Calm,Calm,-,N/A,,Clear,0,2014-01-15 04:55:00
11:15 PM,5.0,1.4,85,30.21,10.0,Calm,Calm,-,N/A,,Clear,0,2014-01-15 05:15:00
11:35 PM,5.0,1.4,85,30.20,10.0,SW,3.5,-,N/A,,Clear,220,2014-01-15 05:35:00
11:55 PM,1.4,-0.4,92,30.19,10.0,SW,5.8,-,N/A,,Clear,230,2014-01-15 05:55:00